Stations météo

réclame
Mon MeteoGroup
Hemling, Suède (2265): Température de l'air & dewpoint: 18.02.2018 13:00:00 - 24.02.2018 13:00:00 (CET)Hemling, Suède (2265): Vitesse du vent & gusts: 18.02.2018 13:00:00 - 24.02.2018 13:00:00 (CET)Hemling, Suède (2265): Direction du vent: 18.02.2018 13:00:00 - 24.02.2018 13:00:00 (CET)Hemling, Suède (2265): reduced air pressure: 18.02.2018 13:00:00 - 24.02.2018 13:00:00 (CET)Hemling, Suède (2265): visibility: 18.02.2018 13:00:00 - 24.02.2018 13:00:00 (CET)Hemling, Suède (2265): Quantités de précipitations: 18.02.2018 13:00:00 - 24.02.2018 13:00:00 (CET)
Date & Time tt [°C] td [°C] ff [km/h] ff [knt] fx [km/h] fx [knt] dd ppp [hPa] vv [km] rr [mm]
24.02.2018 13:00:00 - - - - - - - - - -
24.02.2018 12:00:00 -11,9 -14,8 5 3 9 5 E 1042,5 13 0,0
24.02.2018 11:00:00 -12,5 -15,5 0 0 2 1 N 1042,7 6 0,2
24.02.2018 10:00:00 -13,8 -16,2 0 0 3 2 N 1042,7 2,8 0,2
24.02.2018 09:00:00 -14,7 -16,5 0 0 2 1 N 1042,2 2,7 0,2
24.02.2018 08:00:00 -15,3 -17,1 0 0 2 1 N 1041,9 0,7 0,1
24.02.2018 07:00:00 -16,0 -17,8 0 0 1 1 N 1041,3 2,6 0,0
24.02.2018 06:00:00 -16,6 -18,4 0 0 2 1 N 1041,2 1,8 0,0
24.02.2018 05:00:00 -17,1 -18,7 0 0 2 1 N 1040,7 2,2 0,0
24.02.2018 04:00:00 -18,0 -19,9 0 0 3 1 N 1040,4 3,7 0,1
24.02.2018 03:00:00 -16,2 -17,9 0 0 4 2 N 1040,2 1,7 0,0
24.02.2018 02:00:00 -16,1 -17,9 2 1 3 2 WSW 1040,1 1,3 0,0
24.02.2018 01:00:00 -15,4 -17,1 0 0 3 2 N 1039,9 2,3 0,0
24.02.2018 00:00:00 -16,8 -18,6 0 0 5 3 N 1039,5 1,8 0,0
23.02.2018 23:00:00 -16,5 -18,2 0 0 3 1 N 1039,2 1,7 0,0
23.02.2018 22:00:00 -16,6 -18,1 2 1 5 3 W 1038,7 2,2 0,0
23.02.2018 21:00:00 -16,8 -18,6 0 0 4 2 N 1038,2 15 0,0
23.02.2018 20:00:00 -16,5 -18,3 2 1 4 2 W 1037,6 12 0,1
23.02.2018 19:00:00 -13,4 -15,4 4 2 9 5 NE 1037,0 4,1 0,0
23.02.2018 18:00:00 -11,9 -14,5 3 2 16 9 NW 1036,6 4,2 0,0
23.02.2018 17:00:00 -11,3 -13,9 8 5 16 8 NNE 1036,1 17 0,0
23.02.2018 16:00:00 -10,8 -13,9 8 4 17 9 NNE 1035,3 19 0,0
23.02.2018 15:00:00 -10,3 -13,4 8 4 14 8 NNE 1034,9 23 0,0
23.02.2018 14:00:00 -9,9 -13,0 9 5 13 7 NE 1034,3 33 0,0
23.02.2018 13:00:00 -9,8 -12,9 9 5 14 8 NE 1034,0 11 0,0
23.02.2018 12:00:00 -10,0 -13,1 10 6 16 9 NNE 1033,7 7 0,0
23.02.2018 11:00:00 -11,0 -13,2 7 4 12 7 NNW 1033,3 6 0,0
23.02.2018 10:00:00 -12,1 -14,0 4 2 11 6 NNW 1032,9 11 0,0
23.02.2018 09:00:00 -13,0 -14,6 6 3 13 7 NNW 1032,5 21 0,0
23.02.2018 08:00:00 -15,6 -17,4 3 2 7 4 N 1032,0 6 0,0
23.02.2018 07:00:00 -16,9 -18,8 5 3 9 5 N 1031,6 10 0,0
23.02.2018 06:00:00 -18,7 -20,5 0 0 8 5 N 1031,1 1,4 0,0
23.02.2018 05:00:00 -19,3 -21,2 4 2 11 6 NW 1030,7 50 0,0
23.02.2018 04:00:00 -20,1 -22,4 3 2 9 5 NNW 1030,3 28 0,0
23.02.2018 03:00:00 -20,5 -22,2 4 2 11 6 NW 1030,1 50 0,0
23.02.2018 02:00:00 -24,7 -27,0 5 3 10 6 NNW 1030,0 50 0,0
23.02.2018 01:00:00 -21,2 -23,3 4 2 8 5 NNW 1029,2 50 0,0
23.02.2018 00:00:00 -25,7 -28,1 2 1 7 4 NW 1029,4 47 0,0
22.02.2018 23:00:00 -22,8 -24,5 6 3 9 5 N 1029,2 46 0,0
22.02.2018 22:00:00 -23,2 -25,7 4 2 9 5 WNW 1028,9 33 0,0
22.02.2018 21:00:00 -23,8 -26,3 0 0 6 3 N 1028,9 7 0,0
22.02.2018 20:00:00 -21,4 -23,1 2 1 4 2 NW 1028,4 32 0,0
22.02.2018 19:00:00 -21,0 -22,9 2 1 6 3 N 1028,3 6 0,0
22.02.2018 18:00:00 -19,1 -20,7 3 1 4 2 WNW 1028,3 50 0,0
22.02.2018 17:00:00 -17,2 -18,3 0 0 4 2 N 1028,0 18 0,0
22.02.2018 16:00:00 -15,8 -18,6 0 0 4 2 N 1027,8 8 0,0
22.02.2018 15:00:00 -9,9 -16,4 0 0 6 3 N 1027,8 50 0,0
22.02.2018 14:00:00 -10,8 -14,5 5 3 8 5 N 1028,2 50 0,0
22.02.2018 13:00:00 -12,5 -16,3 5 3 8 4 N 1028,6 48 0,0
22.02.2018 12:00:00 -13,5 -17,1 5 3 10 5 N 1028,8 43 0,0
22.02.2018 11:00:00 -16,2 -19,3 6 3 9 5 N 1029,3 50 0,0
22.02.2018 10:00:00 -18,8 -22,3 4 2 6 3 N 1029,6 50 0,0
22.02.2018 09:00:00 -20,5 -23,2 0 0 3 2 N 1029,9 13 0,0
22.02.2018 08:00:00 -20,6 -22,9 0 0 5 3 N 1029,8 2,9 0,1
22.02.2018 07:00:00 -22,0 -24,4 0 0 5 3 N 1030,0 2,9 0,0
22.02.2018 06:00:00 -21,8 -24,2 0 0 6 3 N 1029,7 6 0,0
22.02.2018 05:00:00 -21,9 -24,0 0 0 4 2 N 1029,9 3,3 0,0
22.02.2018 04:00:00 -24,5 -27,0 0 0 5 3 N 1030,3 3,0 0,0
22.02.2018 03:00:00 -24,3 -26,8 3 2 5 3 NNW 1030,3 44 0,0
22.02.2018 02:00:00 -23,5 -26,0 2 1 3 2 NW 1030,2 1,6 0,0
22.02.2018 01:00:00 -24,8 -27,2 0 0 4 2 N 1030,6 2,5 0,0
22.02.2018 00:00:00 -23,7 -26,3 0 0 6 3 N 1030,5 4,0 0,0
21.02.2018 23:00:00 -22,2 -24,4 3 1 4 2 NNW 1030,2 21 0,0
21.02.2018 22:00:00 -22,4 -24,6 2 1 4 2 NNW 1030,3 20 0,0
21.02.2018 21:00:00 -24,3 -26,5 0 0 3 2 N 1030,2 19 0,0
21.02.2018 20:00:00 -23,7 -26,0 0 0 3 2 N 1030,0 7 0,0
21.02.2018 19:00:00 -22,1 -23,9 0 0 3 1 N 1029,5 50 0,0
21.02.2018 18:00:00 -21,1 -23,1 0 0 3 2 N 1029,1 50 0,0
21.02.2018 17:00:00 -18,1 -19,6 0 0 3 2 N 1028,5 50 0,0
21.02.2018 16:00:00 -14,1 -16,4 4 2 5 3 SE 1028,4 50 0,0
21.02.2018 15:00:00 -12,8 -16,8 0 0 5 3 N 1028,6 45 0,0
21.02.2018 14:00:00 -12,3 -16,5 0 0 2 1 N 1028,8 25 0,0
21.02.2018 13:00:00 -13,0 -19,1 0 0 3 2 N 1029,1 39 0,0
21.02.2018 12:00:00 -12,5 -19,3 2 1 5 3 ENE 1029,3 40 0,0
21.02.2018 11:00:00 -15,5 -19,6 3 2 9 5 NNE 1029,4 35 0,0
21.02.2018 10:00:00 -18,3 -21,3 3 2 7 4 NNE 1029,5 14 0,0
21.02.2018 09:00:00 -22,7 -25,2 0 0 4 2 N 1029,9 11 0,0
21.02.2018 08:00:00 -24,3 -26,8 2 1 5 3 NW 1029,8 3,6 0,0
21.02.2018 07:00:00 -25,2 -27,8 4 2 5 3 WNW 1029,6 11 0,0
21.02.2018 06:00:00 -25,0 -27,5 3 1 5 3 W 1029,8 3,5 0,0
21.02.2018 05:00:00 -27,0 -29,5 0 0 5 3 N 1030,0 31 0,0
21.02.2018 04:00:00 -26,6 -29,3 0 0 3 2 N 1030,1 29 0,0
21.02.2018 03:00:00 -25,6 -27,9 3 1 4 2 NNW 1030,2 41 0,0
21.02.2018 02:00:00 -24,8 -27,2 3 1 4 2 NNW 1030,4 2,2 0,0
21.02.2018 01:00:00 -25,2 -27,5 0 0 4 2 N 1030,6 1,8 0,0
21.02.2018 00:00:00 -23,0 -24,8 3 2 4 2 N 1030,6 2,7 0,0
20.02.2018 23:00:00 -25,4 -28,1 0 0 4 2 N 1030,6 50 0,0
20.02.2018 22:00:00 -22,7 -24,7 0 0 9 5 N 1030,3 50 0,0
20.02.2018 21:00:00 -23,2 -25,3 0 0 3 2 N 1030,4 19 0,0
20.02.2018 20:00:00 -22,2 -24,2 0 0 4 2 N 1030,2 9 0,0
20.02.2018 19:00:00 -21,3 -23,5 0 0 4 2 N 1030,3 50 0,0
20.02.2018 18:00:00 -18,7 -20,7 0 0 3 2 N 1030,0 18 0,0
20.02.2018 17:00:00 -15,9 -17,8 0 0 3 1 N 1029,7 30 0,0
20.02.2018 16:00:00 -12,2 -15,1 2 1 4 2 SW 1029,6 27 0,0
20.02.2018 15:00:00 -9,7 -15,0 0 0 4 2 N 1029,6 47 0,0
20.02.2018 14:00:00 -9,1 -14,7 2 1 5 3 E 1029,7 46 0,0
20.02.2018 13:00:00 -9,4 -14,8 0 0 4 2 N 1030,1 39 0,0
20.02.2018 12:00:00 -9,5 -14,9 2 1 3 2 SE 1030,3 34 0,0
20.02.2018 11:00:00 -10,5 -15,4 0 0 2 1 N 1030,6 22 0,0
20.02.2018 10:00:00 -12,7 -16,4 0 0 2 1 N 1030,8 19 0,0
20.02.2018 09:00:00 -16,3 -18,0 3 1 4 2 N 1031,0 16 0,0
20.02.2018 08:00:00 -17,0 -19,2 0 0 6 3 N 1031,0 6 0,0
20.02.2018 07:00:00 -15,4 -16,9 2 1 3 2 NW 1030,8 4,4 0,1
20.02.2018 06:00:00 -16,2 -18,0 0 0 5 3 N 1030,8 3,4 0,0
20.02.2018 05:00:00 -15,9 -17,4 3 2 6 4 N 1031,1 3,6 0,0
20.02.2018 04:00:00 -16,5 -18,3 0 0 4 2 N 1031,4 3,9 0,0
20.02.2018 03:00:00 -17,6 -19,4 0 0 3 2 N 1031,6 3,8 0,0
20.02.2018 02:00:00 -16,9 -18,5 0 0 3 2 N 1031,9 12 0,0
20.02.2018 01:00:00 -12,8 -13,7 0 0 3 2 N 1031,7 2,9 0,1
20.02.2018 00:00:00 -12,3 -13,6 2 1 4 2 E 1031,9 2,3 0,1
19.02.2018 23:00:00 -11,0 -12,5 2 1 5 3 SE 1031,9 1,8 0,0
19.02.2018 22:00:00 -10,8 -12,0 4 2 5 3 ESE 1031,7 2,2 0,1
19.02.2018 21:00:00 -10,0 -11,2 0 0 4 2 N 1031,6 1,2 0,0
19.02.2018 20:00:00 -9,6 -11,1 3 2 7 4 E 1031,3 2,3 0,0
19.02.2018 19:00:00 -8,3 -9,9 5 3 7 4 SE 1031,3 2,3 0,0
19.02.2018 18:00:00 -7,7 -9,1 0 0 6 4 N 1031,3 1,3 0,0
19.02.2018 17:00:00 -7,3 -8,7 4 2 6 4 E 1031,0 3,1 0,0
19.02.2018 16:00:00 -7,2 -9,3 0 0 3 2 N 1030,6 6 0,0
19.02.2018 15:00:00 -6,8 -9,8 0 0 6 3 N 1030,3 19 0,0
19.02.2018 14:00:00 -6,1 -10,0 4 2 8 5 W 1030,2 19 0,0
19.02.2018 13:00:00 -8,2 -11,7 0 0 3 1 N 1030,3 17 0,0
19.02.2018 12:00:00 -7,6 -9,8 0 0 1 1 N 1030,3 7 0,0
19.02.2018 11:00:00 -9,4 -11,2 0 0 3 2 N 1030,1 5 0,0
19.02.2018 10:00:00 -10,5 -11,7 2 1 4 2 WNW 1029,8 5 0,0
19.02.2018 09:00:00 -12,3 -13,6 3 2 4 2 WSW 1029,4 - 0,0
19.02.2018 08:00:00 -13,0 -14,6 2 1 4 2 W 1028,7 4,5 0,0
19.02.2018 07:00:00 -13,0 -14,4 0 0 4 2 N 1028,4 8 0,0
19.02.2018 06:00:00 -13,8 -15,4 0 0 6 3 N 1028,0 12 0,0
19.02.2018 05:00:00 -12,4 -13,7 0 0 3 2 N 1027,5 4,4 0,0
19.02.2018 04:00:00 -14,0 -15,1 0 0 3 1 N 1027,3 15 0,1
19.02.2018 03:00:00 -14,3 -15,7 0 0 2 1 N 1027,1 10 0,0
19.02.2018 02:00:00 -13,0 -14,2 0 0 3 2 N 1027,0 7 0,0
19.02.2018 01:00:00 -12,0 -13,3 0 0 3 2 N 1026,7 12 0,0
19.02.2018 00:00:00 -12,1 -13,5 0 0 5 3 N 1026,6 13 0,0
18.02.2018 23:00:00 -11,4 -12,7 0 0 2 1 N 1026,2 18 0,0
18.02.2018 22:00:00 -11,1 -11,7 0 0 3 2 N 1026,1 0,7 0,0
18.02.2018 21:00:00 -8,1 -9,3 2 1 6 3 SE 1025,4 11 0,0
18.02.2018 20:00:00 -6,1 -7,3 5 3 7 4 S 1025,3 15 0,0
18.02.2018 19:00:00 -6,5 -7,7 3 1 4 2 ESE 1025,1 12 0,0
18.02.2018 18:00:00 -5,8 -7,2 0 0 4 2 N 1024,8 12 0,0
18.02.2018 17:00:00 -5,4 -6,9 2 1 4 2 SW 1024,6 12 0,0
18.02.2018 16:00:00 -4,5 -6,6 3 2 8 4 S 1024,5 22 0,0
18.02.2018 15:00:00 -4,2 -7,8 4 2 6 4 SSE 1024,4 50 0,0
18.02.2018 14:00:00 -4,0 -6,9 4 2 9 5 SSE 1024,5 29 0,0
18.02.2018 13:00:00 -4,2 -7,0 5 3 9 5 S 1024,6 11 0,0

tt = Température de l'air
td = dewpoint
ff = Vitesse du vent
fx = gusts
dd = Direction du vent
ppp = reduced air pressure
vv = visibility
rr = Quantités de précipitations

stations d'obs. à proximité